This is the latest recevied weather packets stored in our database for station/object Ad4UU. If no packets are shown the sender has not sent any weather packets the latest 10 day(s).
| Time | Temp. | Humidity | Pressure | Rain* | Wind** | Luminosity | Snow |
|---|---|---|---|---|---|---|---|
| 1777560359 | 27.22° C | 72% | 1013.4 hPa | 0 mm | - | - | - |
| 1777560030 | 27.22° C | 73% | 1013.2 hPa | 0 mm | - | - | - |
| 1777559730 | 26.67° C | 74% | 1013.2 hPa | 0 mm | - | - | - |
| 1777557930 | 26.11° C | 77% | 1013.1 hPa | 0 mm | - | - | - |
| 1777557033 | 26.11° C | 78% | 1013.3 hPa | 0 mm | - | - | - |
| 1777554952 | 23.33° C | 87% | 1013.1 hPa | 0 mm | - | - | - |
| 1777554051 | 22.78° C | 87% | 1013.1 hPa | 0 mm | - | - | - |
| 1777551631 | 21.67° C | 90% | 1013.1 hPa | 0 mm | - | - | - |
| 1777550735 | 21.67° C | 92% | 1013.4 hPa | 0 mm | - | - | - |
| 1777549831 | 21.11° C | 93% | 1013.4 hPa | 0 mm | - | - | - |
| 1777548930 | 20.56° C | 93% | 1013.3 hPa | 0 mm | - | - | - |
| 1777548330 | 20.56° C | 93% | 1013 hPa | 0 mm | - | - | - |
| 1777545060 | 20.56° C | 93% | 1012.4 hPa | 0 mm | - | - | - |
| 1777543531 | 20.56° C | 94% | 1012.4 hPa | 0 mm | - | - | - |
| 1777541730 | 20.56° C | 94% | 1011.8 hPa | 0 mm | - | - | - |
| 1777540831 | 20.56° C | 94% | 1012.2 hPa | 0 mm | - | - | - |
| 1777537533 | 20.56° C | 94% | 1012.2 hPa | 0 mm | - | - | - |
| 1777536989 | 20.56° C | 94% | 1012.5 hPa | 0 mm | - | - | - |
| 1777535142 | 20.56° C | 95% | 1012.7 hPa | 0 mm | - | - | - |
| 1777534830 | 20.56° C | 95% | 1012.8 hPa | 0 mm | - | - | - |
| 1777534531 | 20.56° C | 96% | 1012.7 hPa | 0 mm | - | - | - |
| 1777533631 | 20.56° C | 96% | 1012.7 hPa | 0 mm | - | - | - |
| 1777533030 | 20.56° C | 97% | 1013 hPa | 0 mm | - | - | - |
| 1777532130 | 20.56° C | 97% | 1013.2 hPa | 0 mm | - | - | - |
| 1777530031 | 20.56° C | 97% | 1013.6 hPa | 0 mm | - | - | - |
* Rain latest hour (hover to see other rain measurements)
** Current wind speed in m/s (hover to see current wind gust speed)